Погода в Покровском

Россия / Ивановская область     56°36′08″N   41°21′53″E
темп.,
°C
ветер,
м/с
пор.,
м/с
влажн.,
%
обл.,
%
осадки,
мм/ч
давл.,
гПа
погр.,
м
15 апреля, чт
чт1500:00+11ю2261100 0.0 101811
03:00+10ююв1165100 0.0 101810
06:00+9юв1171100 0.0 101810
09:00+14всв1256100 0.0 1018197
12:00+18всв2240100 0.0 1018715
15:00+20св4437100 0.0 10181780
18:00+15св61069100 0.0 1019664
21:00+9св6138697 0.0 1021502
16 апреля, пт
пт1600:00+7всв6128994 0.0 1022503
03:00+7всв51286100 0.0 1023559
06:00+5всв51285100 0.0 1024521
09:00+8всв6971100 0.0 1025621
12:00+12всв685888 0.0 1025899
15:00+14всв685478 0.0 10241224
18:00+12всв5961100 0.0 1025964
21:00+9всв5126892 0.0 1026557
17 апреля, сб
сб1700:00+6всв5126790 0.0 1027436
03:00+5всв4127362 0.0 1027375
06:00+4всв4127423 0.0 1028404
09:00+8всв6105122 0.0 1028644
12:00+12всв683860 0.0 10271101
15:00+13всв68325 0.0 10261373
18:00+12всв58405 0.0 1026932
21:00+7св412605 0.0 1026370
18 апреля, вс
вс1800:00+5всв413670 0.0 1026374
03:00+4св411760 0.0 1027299
06:00+3св412770 0.0 1027340
09:00+8всв58560 0.0 1027892
12:00+12всв57405 0.0 10261630
15:00+12всв6737100 0.0 10261786
18:00+10всв4949100 0.0 10271279
21:00+8всв61166100 0.0 1027616
19 апреля, пн
пн1900:00+5всв41075100 0.0 1029518
03:00+3всв4107695 0.0 1029426
06:00+2всв4107062 0.0 1031471
09:00+5в58470 0.0 1031922
12:00+8в68330 0.0 10311563
15:00+9в57345 0.0 10311810
18:00+8всв46415 0.0 10311510
21:00+4всв411555 0.0 1033334